Tracking 20942 objects as of 13-Jul-2020
HD Live streaming from Space Station
objects crossing your sky now

ACRUX 1

Track ACRUX 1 now!
10-day predictions
ACRUX 1 is classified as:


NORAD ID: 44369
Int'l Code: 2019-037E
Perigee: 438.5 km
Apogee: 457.2 km
Inclination: 45.0 °
Period: 93.4 minutes
Semi major axis: 6818 km
RCS: Unknown
Launch date: June 29, 2019
Source: Australia (AUS)
Launch site: Rocket Lab Launch Complex (RLLC)

Uplink (MHz):
Downlink (MHz): 437.200
Beacon (MHz):
Mode: 9600bps GMSK
Call sign: CQ
Status: Inactive

aabbcc
Your satellite tracking list
Your tracking list is empty




NASA's NSSDC Master Catalog

Two Line Element Set (TLE):
1 44369U 19037E   20195.55666172 +.00002334 +00000-0 +61913-4 0  9997
2 44369 045.0092 332.3350 0013726 332.2669 027.7486 15.41837756058607
Source of the keplerian elements: AFSPC